This is the latest recevied weather packets stored in our database for station/object N0ZRD-10. If no packets are shown the sender has not sent any weather packets the latest 10 day(s).
| Time | Temp. | Humidity | Pressure | Rain* | Wind** | Luminosity | Snow |
|---|---|---|---|---|---|---|---|
| 1777687104 | 5.56° C | 39% | - | 0 mm | - | - | - |
| 1777686502 | 6.11° C | 38% | - | 0 mm | - | - | - |
| 1777685901 | 6.67° C | 35% | - | 0 mm | - | - | - |
| 1777685300 | 7.22° C | 34% | - | 0 mm | - | - | - |
| 1777684096 | 9.44° C | 26% | - | 0 mm | - | - | - |
| 1777683495 | 11.11° C | 21% | - | 0 mm | - | - | - |
| 1777682894 | 11.11° C | 21% | - | 0 mm | - | - | - |
| 1777682294 | 11.11° C | 21% | - | 0 mm | - | - | - |
| 1777681693 | 12.22° C | 19% | - | 0 mm | - | - | - |
| 1777681092 | 11.11° C | 18% | - | 0 mm | - | - | - |
| 1777680491 | 11.11° C | 19% | - | 0 mm | - | - | - |
| 1777679890 | 11.11° C | 22% | - | 0 mm | - | - | - |
| 1777679288 | 11.67° C | 19% | - | 0 mm | - | - | - |
| 1777678687 | 11.11° C | 20% | - | 0 mm | - | - | - |
| 1777678087 | 11.11° C | 23% | - | 0 mm | - | - | - |
| 1777677485 | 10.56° C | 20% | - | 0 mm | - | - | - |
| 1777676284 | 11.67° C | 22% | - | 0 mm | - | - | - |
| 1777675682 | 11.11° C | 18% | - | 0 mm | - | - | - |
| 1777674478 | 11.11° C | 18% | - | 0 mm | - | - | - |
| 1777673276 | 11.67° C | 21% | - | 0 mm | - | - | - |
| 1777672674 | 11.67° C | 18% | - | 0 mm | - | - | - |
| 1777672074 | 11.67° C | 19% | - | 0 mm | - | - | - |
| 1777671473 | 11.67° C | 19% | - | 0 mm | - | - | - |
| 1777670271 | 11.11° C | 18% | - | 0 mm | - | - | - |
| 1777669670 | 11.11° C | 21% | - | 0 mm | - | - | - |
* Rain latest hour (hover to see other rain measurements)
** Current wind speed in m/s (hover to see current wind gust speed)